Time,TemperatureF,DewpointF,PressureIn,WindDirection,WindDirectionDegrees,WindSpeedMPH,WindSpeedGustMPH,Humidity,HourlyPrecipIn,Conditions,Clouds,dailyrainin,SoftwareType,DateUTC
2013-06-15 00:05:00,60.4,58.0,29.94,WNW,289,0.0,0.0,90,0.00,,,0.00,weatherlink.com 1.10,2013-06-15 04:05:00,
2013-06-15 00:20:00,60.1,57.0,29.94,WNW,288,0.0,0.0,90,0.00,,,0.00,weatherlink.com 1.10,2013-06-15 04:20:00,
2013-06-15 00:35:00,59.8,57.0,29.95,WNW,289,0.0,0.0,91,0.00,,,0.00,weatherlink.com 1.10,2013-06-15 04:35:00,
2013-06-15 00:50:00,59.4,57.0,29.94,WNW,288,0.0,0.0,91,0.00,,,0.00,weatherlink.com 1.10,2013-06-15 04:50:00,
2013-06-15 01:05:00,59.0,57.0,29.95,WNW,288,0.0,0.0,92,0.00,,,0.00,weatherlink.com 1.10,2013-06-15 05:05:00,
2013-06-15 01:20:00,59.0,57.0,29.95,WNW,288,0.0,0.0,93,0.00,,,0.00,weatherlink.com 1.10,2013-06-15 05:20:00,
2013-06-15 01:35:00,59.0,57.0,29.95,WNW,288,0.0,0.0,93,0.00,,,0.00,weatherlink.com 1.10,2013-06-15 05:35:00,
2013-06-15 01:50:00,58.6,57.0,29.95,WNW,288,0.0,0.0,93,0.00,,,0.00,weatherlink.com 1.10,2013-06-15 05:50:00,
2013-06-15 02:05:00,58.2,56.0,29.95,WNW,288,0.0,0.0,93,0.00,,,0.00,weatherlink.com 1.10,2013-06-15 06:05:00,
2013-06-15 02:20:00,57.8,56.0,29.96,WNW,289,0.0,0.0,93,0.00,,,0.00,weatherlink.com 1.10,2013-06-15 06:20:00,
2013-06-15 02:35:00,57.5,56.0,29.96,WNW,289,0.0,0.0,94,0.00,,,0.00,weatherlink.com 1.10,2013-06-15 06:35:00,
2013-06-15 02:50:00,57.2,56.0,29.95,WNW,288,0.0,0.0,94,0.00,,,0.00,weatherlink.com 1.10,2013-06-15 06:50:00,
2013-06-15 03:05:00,57.1,55.0,29.96,WNW,289,0.0,0.0,94,0.00,,,0.00,weatherlink.com 1.10,2013-06-15 07:05:00,
2013-06-15 03:20:00,56.8,55.0,29.96,WNW,289,0.0,0.0,94,0.00,,,0.00,weatherlink.com 1.10,2013-06-15 07:20:00,
2013-06-15 03:35:00,56.6,55.0,29.96,WNW,289,0.0,0.0,95,0.00,,,0.00,weatherlink.com 1.10,2013-06-15 07:35:00,
2013-06-15 03:50:00,56.3,55.0,29.96,WNW,289,0.0,0.0,95,0.00,,,0.00,weatherlink.com 1.10,2013-06-15 07:50:00,
2013-06-15 04:05:00,56.1,55.0,29.95,WNW,289,0.0,0.0,95,0.00,,,0.00,weatherlink.com 1.10,2013-06-15 08:05:00,
2013-06-15 04:20:00,55.8,54.0,29.95,WNW,289,0.0,0.0,95,0.00,,,0.00,weatherlink.com 1.10,2013-06-15 08:20:00,
2013-06-15 04:36:00,55.5,54.0,29.95,WNW,289,0.0,0.0,95,0.00,,,0.00,weatherlink.com 1.10,2013-06-15 08:36:00,
2013-06-15 04:50:00,55.2,54.0,29.94,WNW,289,0.0,0.0,95,0.00,,,0.00,weatherlink.com 1.10,2013-06-15 08:50:00,
2013-06-15 05:05:00,55.0,54.0,29.96,WNW,288,0.0,0.0,95,0.00,,,0.00,weatherlink.com 1.10,2013-06-15 09:05:00,
2013-06-15 05:20:00,54.7,53.0,29.97,WNW,289,0.0,0.0,95,0.00,,,0.00,weatherlink.com 1.10,2013-06-15 09:20:00,
2013-06-15 05:35:00,54.5,53.0,29.97,WNW,289,0.0,0.0,95,0.00,,,0.00,weatherlink.com 1.10,2013-06-15 09:35:00,
2013-06-15 05:50:00,54.4,53.0,29.99,WNW,288,0.0,0.0,95,0.00,,,0.00,weatherlink.com 1.10,2013-06-15 09:50:00,
2013-06-15 06:05:00,54.5,53.0,30.00,WNW,289,0.0,0.0,96,0.00,,,0.00,weatherlink.com 1.10,2013-06-15 10:05:00,
2013-06-15 06:20:00,54.8,54.0,30.01,WNW,288,0.0,1.0,96,0.00,,,0.00,weatherlink.com 1.10,2013-06-15 10:20:00,
2013-06-15 06:35:00,55.3,55.0,30.01,WNW,288,0.0,0.0,97,0.00,,,0.00,weatherlink.com 1.10,2013-06-15 10:35:00,
2013-06-15 06:50:00,56.0,55.0,30.01,SSE,167,0.0,0.0,97,0.00,,,0.00,weatherlink.com 1.10,2013-06-15 10:50:00,
2013-06-15 07:05:00,57.1,57.0,30.02,SSE,167,0.0,0.0,98,0.00,,,0.00,weatherlink.com 1.10,2013-06-15 11:05:00,
2013-06-15 07:20:00,59.0,59.0,30.02,SSW,196,0.0,0.0,98,0.00,,,0.00,weatherlink.com 1.10,2013-06-15 11:20:00,
2013-06-15 07:35:00,60.0,60.0,30.02,SSW,196,0.0,1.0,98,0.00,,,0.00,weatherlink.com 1.10,2013-06-15 11:35:00,
2013-06-15 07:51:00,61.4,61.0,30.03,SSW,198,1.0,2.0,97,0.00,,,0.00,weatherlink.com 1.10,2013-06-15 11:51:00,
2013-06-15 08:06:00,63.3,61.0,30.03,SSW,196,0.0,3.0,91,0.00,,,0.00,weatherlink.com 1.10,2013-06-15 12:06:00,
2013-06-15 08:36:00,66.8,61.0,30.03,South,175,0.0,2.0,81,0.00,,,0.00,weatherlink.com 1.10,2013-06-15 12:36:00,
2013-06-15 08:51:00,68.2,61.0,30.04,South,170,0.0,1.0,79,0.00,,,0.00,weatherlink.com 1.10,2013-06-15 12:51:00,
2013-06-15 09:06:00,69.4,61.0,30.03,WSW,245,0.0,3.0,74,0.00,,,0.00,weatherlink.com 1.10,2013-06-15 13:06:00,
2013-06-15 09:21:00,70.6,62.0,30.04,WNW,286,0.0,4.0,73,0.00,,,0.00,weatherlink.com 1.10,2013-06-15 13:21:00,
2013-06-15 09:36:00,71.7,61.0,30.04,WNW,302,1.0,4.0,69,0.00,,,0.00,weatherlink.com 1.10,2013-06-15 13:36:00,
2013-06-15 09:51:00,72.4,61.0,30.04,WNW,294,1.0,6.0,68,0.00,,,0.00,weatherlink.com 1.10,2013-06-15 13:51:00,
2013-06-15 10:06:00,73.7,63.0,30.03,SSW,196,0.0,2.0,69,0.00,,,0.00,weatherlink.com 1.10,2013-06-15 14:06:00,
2013-06-15 10:21:00,74.7,63.0,30.03,WSW,237,0.0,3.0,66,0.00,,,0.00,weatherlink.com 1.10,2013-06-15 14:21:00,
2013-06-15 10:36:00,75.1,62.0,30.02,WNW,291,3.0,6.0,63,0.00,,,0.00,weatherlink.com 1.10,2013-06-15 14:36:00,
2013-06-15 10:51:00,75.8,63.0,30.03,WNW,295,0.0,3.0,64,0.00,,,0.00,weatherlink.com 1.10,2013-06-15 14:51:00,
2013-06-15 11:06:00,75.8,62.0,30.02,WNW,284,1.0,7.0,62,0.00,,,0.00,weatherlink.com 1.10,2013-06-15 15:06:00,
2013-06-15 11:21:00,76.1,62.0,30.02,WNW,282,0.0,7.0,61,0.00,,,0.00,weatherlink.com 1.10,2013-06-15 15:21:00,
2013-06-15 11:36:00,76.1,62.0,30.02,WNW,287,0.0,6.0,61,0.00,,,0.00,weatherlink.com 1.10,2013-06-15 15:36:00,
2013-06-15 11:52:00,76.8,62.0,30.02,WNW,287,1.0,7.0,61,0.00,,,0.00,weatherlink.com 1.10,2013-06-15 15:52:00,
2013-06-15 12:06:00,76.6,61.0,30.02,WSW,238,2.0,7.0,59,0.00,,,0.00,weatherlink.com 1.10,2013-06-15 16:06:00,
2013-06-15 12:21:00,76.2,62.0,30.02,West,274,0.0,7.0,62,0.00,,,0.00,weatherlink.com 1.10,2013-06-15 16:21:00,
2013-06-15 12:36:00,77.0,58.0,30.02,West,276,0.0,7.0,53,0.00,,,0.00,weatherlink.com 1.10,2013-06-15 16:36:00,
2013-06-15 12:51:00,77.6,61.0,30.01,WSW,252,0.0,7.0,56,0.00,,,0.00,weatherlink.com 1.10,2013-06-15 16:51:00,
2013-06-15 13:06:00,78.0,60.0,30.01,West,263,1.0,8.0,54,0.00,,,0.00,weatherlink.com 1.10,2013-06-15 17:06:00,
2013-06-15 13:22:00,78.1,61.0,30.00,WSW,241,4.0,12.0,55,0.00,,,0.00,weatherlink.com 1.10,2013-06-15 17:22:00,
2013-06-15 13:37:00,78.3,61.0,30.00,WNW,298,1.0,6.0,55,0.00,,,0.00,weatherlink.com 1.10,2013-06-15 17:37:00,
2013-06-15 13:52:00,78.9,57.0,29.99,WNW,286,1.0,8.0,48,0.00,,,0.00,weatherlink.com 1.10,2013-06-15 17:52:00,
2013-06-15 14:07:00,79.1,58.0,29.98,West,277,3.0,7.0,48,0.00,,,0.00,weatherlink.com 1.10,2013-06-15 18:07:00,
2013-06-15 14:22:00,79.8,58.0,29.98,West,281,1.0,7.0,48,0.00,,,0.00,weatherlink.com 1.10,2013-06-15 18:22:00,
2013-06-15 14:37:00,79.9,60.0,29.98,West,267,1.0,7.0,51,0.00,,,0.00,weatherlink.com 1.10,2013-06-15 18:37:00,
2013-06-15 14:52:00,80.0,59.0,29.98,WSW,257,0.0,7.0,49,0.00,,,0.00,weatherlink.com 1.10,2013-06-15 18:52:00,
2013-06-15 15:07:00,80.6,60.0,29.98,NW,308,4.0,7.0,50,0.00,,,0.00,weatherlink.com 1.10,2013-06-15 19:07:00,
2013-06-15 15:22:00,81.2,61.0,29.97,WNW,287,0.0,5.0,50,0.00,,,0.00,weatherlink.com 1.10,2013-06-15 19:22:00,
2013-06-15 15:37:00,81.6,58.0,29.98,WNW,292,2.0,8.0,44,0.00,,,0.00,weatherlink.com 1.10,2013-06-15 19:37:00,
2013-06-15 15:52:00,81.8,58.0,29.97,WNW,297,3.0,4.0,44,0.00,,,0.00,weatherlink.com 1.10,2013-06-15 19:52:00,
2013-06-15 16:07:00,81.6,58.0,29.97,WNW,298,0.0,7.0,45,0.00,,,0.00,weatherlink.com 1.10,2013-06-15 20:07:00,
2013-06-15 16:22:00,81.6,56.0,29.97,West,269,4.0,8.0,41,0.00,,,0.00,weatherlink.com 1.10,2013-06-15 20:22:00,
2013-06-15 16:37:00,80.6,57.0,29.97,WNW,286,4.0,7.0,44,0.00,,,0.00,weatherlink.com 1.10,2013-06-15 20:37:00,
2013-06-15 16:52:00,81.4,57.0,29.96,NW,307,1.0,7.0,43,0.00,,,0.00,weatherlink.com 1.10,2013-06-15 20:52:00,
2013-06-15 17:07:00,81.5,56.0,29.96,WNW,283,2.0,8.0,42,0.00,,,0.00,weatherlink.com 1.10,2013-06-15 21:07:00,
2013-06-15 17:22:00,81.3,57.0,29.96,WNW,300,1.0,4.0,44,0.00,,,0.00,weatherlink.com 1.10,2013-06-15 21:22:00,
2013-06-15 17:37:00,82.3,57.0,29.96,NW,309,0.0,7.0,42,0.00,,,0.00,weatherlink.com 1.10,2013-06-15 21:37:00,
2013-06-15 17:52:00,81.9,59.0,29.96,West,265,1.0,6.0,46,0.00,,,0.00,weatherlink.com 1.10,2013-06-15 21:52:00,
2013-06-15 18:07:00,82.2,58.0,29.96,West,273,0.0,5.0,44,0.00,,,0.00,weatherlink.com 1.10,2013-06-15 22:07:00,
2013-06-15 18:22:00,81.5,56.0,29.95,WNW,283,3.0,8.0,42,0.00,,,0.00,weatherlink.com 1.10,2013-06-15 22:22:00,
2013-06-15 18:37:00,81.0,57.0,29.95,WNW,286,0.0,6.0,44,0.00,,,0.00,weatherlink.com 1.10,2013-06-15 22:37:00,
2013-06-15 18:52:00,81.0,56.0,29.96,WNW,290,0.0,8.0,42,0.00,,,0.00,weatherlink.com 1.10,2013-06-15 22:52:00,
2013-06-15 19:07:00,81.2,56.0,29.96,WNW,297,1.0,4.0,42,0.00,,,0.00,weatherlink.com 1.10,2013-06-15 23:07:00,
2013-06-15 19:22:00,80.4,55.0,29.96,WNW,296,0.0,2.0,42,0.00,,,0.00,weatherlink.com 1.10,2013-06-15 23:22:00,
2013-06-15 19:37:00,79.5,56.0,29.97,WNW,291,0.0,4.0,45,0.00,,,0.00,weatherlink.com 1.10,2013-06-15 23:37:00,
2013-06-15 19:52:00,78.6,56.0,29.97,WNW,292,0.0,2.0,46,0.00,,,0.00,weatherlink.com 1.10,2013-06-15 23:52:00,
2013-06-15 20:07:00,77.5,58.0,29.97,WNW,291,0.0,0.0,51,0.00,,,0.00,weatherlink.com 1.10,2013-06-16 00:07:00,
2013-06-15 20:22:00,75.7,60.0,29.96,WNW,292,0.0,0.0,58,0.00,,,0.00,weatherlink.com 1.10,2013-06-16 00:22:00,
2013-06-15 20:37:00,73.6,60.0,29.96,WNW,290,0.0,1.0,62,0.00,,,0.00,weatherlink.com 1.10,2013-06-16 00:37:00,
2013-06-15 20:52:00,71.7,61.0,29.97,WNW,290,0.0,0.0,68,0.00,,,0.00,weatherlink.com 1.10,2013-06-16 00:52:00,
2013-06-15 21:07:00,69.5,61.0,29.97,West,277,0.0,0.0,73,0.00,,,0.00,weatherlink.com 1.10,2013-06-16 01:07:00,
2013-06-15 21:22:00,68.0,60.0,29.97,West,277,0.0,0.0,75,0.00,,,0.00,weatherlink.com 1.10,2013-06-16 01:22:00,
2013-06-15 21:37:00,66.7,60.0,29.98,West,277,0.0,0.0,78,0.00,,,0.00,weatherlink.com 1.10,2013-06-16 01:37:00,
2013-06-15 21:52:00,65.7,59.0,29.98,West,276,0.0,0.0,80,0.00,,,0.00,weatherlink.com 1.10,2013-06-16 01:52:00,
2013-06-15 22:07:00,64.8,59.0,29.99,West,277,0.0,0.0,82,0.00,,,0.00,weatherlink.com 1.10,2013-06-16 02:07:00,
2013-06-15 22:22:00,64.0,59.0,29.99,West,276,0.0,0.0,84,0.00,,,0.00,weatherlink.com 1.10,2013-06-16 02:22:00,
2013-06-15 22:37:00,63.2,59.0,29.98,West,277,0.0,0.0,86,0.00,,,0.00,weatherlink.com 1.10,2013-06-16 02:37:00,
2013-06-15 22:52:00,62.5,58.0,29.99,West,277,0.0,0.0,86,0.00,,,0.00,weatherlink.com 1.10,2013-06-16 02:52:00,
2013-06-15 23:07:00,61.7,58.0,29.99,West,277,0.0,0.0,87,0.00,,,0.00,weatherlink.com 1.10,2013-06-16 03:07:00,
2013-06-15 23:22:00,61.1,58.0,29.99,West,276,0.0,0.0,89,0.00,,,0.00,weatherlink.com 1.10,2013-06-16 03:22:00,
2013-06-15 23:37:00,60.7,58.0,29.99,West,276,0.0,0.0,89,0.00,,,0.00,weatherlink.com 1.10,2013-06-16 03:37:00,
2013-06-15 23:52:00,60.3,57.0,29.99,West,277,0.0,0.0,90,0.00,,,0.00,weatherlink.com 1.10,2013-06-16 03:52:00,